Simultaneous Nadir Overpasses (SNOs) Predictions

Prediction of SNOs between LANDSAT-8 and NOAA-19 Satellite Orbit:

Table of predicted SNOs for the next 14.0 days since TLE Epoch: 12/21/2019
Index Date (LANDSAT-8) Time (LANDSAT-8) Lat,Lon (LANDSAT-8) SZA (LANDSAT-8 ) Date (NOAA-19) Time (NOAA-19) Lat,Lon (NOAA-19) SZA (NOAA-19 ) Distance(km) Time Diff (sec)
1 12/21/2019 19:23:21 79.35, -87.94 103.55 12/21/2019 19:22:13 79.35, -87.95 103.53 0.43 68
2 12/21/2019 20:12:49 -79.32, 79.48 76.50 12/21/2019 20:13:08 -79.32, 79.58 76.48 2.07 19
3 12/24/2019 01:46:31 79.35, 176.26 103.52 12/24/2019 01:46:34 79.33, 176.25 103.50 2.85 3
4 12/26/2019 07:20:15 -79.36, -87.13 76.55 12/26/2019 07:19:51 -79.35, -87.18 76.57 1.60 24
5 12/26/2019 08:09:42 79.31, 80.20 103.39 12/26/2019 08:10:55 79.31, 80.43 103.42 4.60 73
6 12/28/2019 12:53:57 79.35, 9.34 103.32 12/28/2019 12:53:17 79.37, 9.33 103.34 3.12 40
7 12/28/2019 13:43:25 -79.32, 176.81 76.72 12/28/2019 13:44:11 -79.34, 176.91 76.68 3.06 46
8 12/30/2019 18:27:41 -79.35, 105.95 76.82 12/30/2019 18:26:33 -79.38, 106.02 76.80 3.73 68
9 12/30/2019 19:17:07 79.34, -86.49 103.16 12/30/2019 19:17:38 79.36, -86.53 103.19 2.40 31




NCC Satellite Simultaneous Nadir Overpasses (SNOs) Prediction Service
